Tucson, AZ

3:25 PM MST on December 08, 2016 (GMT -0700)
Davis-Monthan Air Force Base

Weather History for KDMA - September, 2014

Change the Weather History Date:

Tuesday, September 2, 2014

  Actual Average Record
Temperature  
Mean Temperature 86 °F -  
Max Temperature 100 °F 95 °F 106 °F (1948)
Min Temperature 72 °F 71 °F 63 °F (1951)
Cooling Degree Days 21    
Growing Degree Days 36 (Base 50)    
Moisture  
Dew Point 47 °F    
Average Humidity 26    
Maximum Humidity 47    
Minimum Humidity 13    
Precipitation  
Precipitation 0.00 in - - ()
Sea Level Pressure  
Sea Level Pressure 29.75 in    
Wind  
Wind Speed 5 mph (SSE)    
Max Wind Speed 13 mph    
Max Gust Speed -    
Visibility 10 miles    
Events      
Averages and records for this station are not official NWS values.
T = Trace of Precipitation, MM = Missing Value Source: NWS Daily Summary

Daily Weather History Graph

Daily Weather History Graph

Search for Another Location

Airport or City:

Trip Planner

Search our weather history database for the weather conditions in past years. The results will help you decide how hot, cold, wet, or windy it might be!

Date:

Astronomy

Sep. 02, 2014 Rise Set
Actual Time 5:59 AM MST 6:46 PM MST
Civil Twilight 5:34 AM MST 7:11 PM MST
Nautical Twilight 5:05 AM MST 7:40 PM MST
Astronomical Twilight 4:34 AM MST 8:10 PM MST
Moon 1:22 PM MST (9/2) No Moon Set
Length of Visible Light 13h 36m
Length of Day
12h 46m
First Quarter, 54% of the Moon is Illuminated
Sep 2
First Quarter
Sep 8
Full
Sep 15
Last Quarter
Sep 23
New
Oct 1
First Quarter

Hourly Weather History & Observations

Time (MST) Temp. Dew Point Humidity Pressure Visibility Wind Dir Wind Speed Gust Speed Precip Events Conditions
12:58 AM 79.2 °F 49.6 °F 35% 29.78 in 10.0 mi SE 3.5 mph - N/A   Clear
1:58 AM 77.4 °F 50.2 °F 38% 29.78 in 10.0 mi SE 5.8 mph - N/A   Clear
2:58 AM 75.6 °F 49.8 °F 40% 29.78 in 10.0 mi SSE 5.8 mph - N/A   Clear
3:58 AM 75.2 °F 50.4 °F 42% 29.77 in 10.0 mi SE 3.5 mph - N/A   Clear
4:58 AM 73.9 °F 50.5 °F 44% 29.78 in 10.0 mi SE 2.3 mph - N/A   Clear
5:58 AM 72.1 °F 50.7 °F 47% 29.80 in 10.0 mi SE 8.1 mph - N/A   Clear
6:58 AM 75.0 °F 51.4 °F 44% 29.82 in 10.0 mi SE 8.1 mph - N/A   Clear
7:58 AM 82.8 °F 50.9 °F 33% 29.83 in 10.0 mi SE 10.4 mph - N/A   Clear
8:58 AM 86.9 °F 51.6 °F 30% 29.83 in 10.0 mi South 8.1 mph - N/A   Clear
9:58 AM 91.2 °F 50.0 °F 24% 29.81 in 10.0 mi SE 4.6 mph - N/A   Clear
10:58 AM 94.5 °F 48.9 °F 21% 29.81 in 10.0 mi NNW 3.5 mph - N/A   Clear
11:58 AM 97.3 °F 43.7 °F 16% 29.79 in 10.0 mi Variable 3.5 mph - N/A   Clear
12:58 PM 98.1 °F 43.0 °F 15% 29.76 in 10.0 mi Variable 6.9 mph - N/A   Clear
1:58 PM 99.3 °F 41.0 °F 13% 29.75 in 10.0 mi Variable 2.3 mph - N/A   Clear
2:58 PM 99.7 °F 41.4 °F 13% 29.72 in 10.0 mi North 6.9 mph - N/A   Clear
3:58 PM 100.9 °F 42.3 °F 13% 29.69 in 10.0 mi NW 12.7 mph - N/A   Clear
4:58 PM 100.6 °F 42.8 °F 14% 29.67 in 10.0 mi Variable 5.8 mph - N/A   Clear
5:58 PM 99.1 °F 43.5 °F 15% 29.67 in 10.0 mi West 2.3 mph - N/A   Clear
6:58 PM 96.4 °F 42.3 °F 15% 29.68 in 10.0 mi NNW 5.8 mph - N/A   Clear
7:58 PM 91.8 °F 44.6 °F 20% 29.70 in 10.0 mi NNW 2.3 mph - N/A   Clear
8:58 PM 87.8 °F 47.1 °F 24% 29.70 in 10.0 mi West 2.3 mph - N/A   Clear
9:58 PM 84.9 °F 44.4 °F 24% 29.73 in 10.0 mi South 4.6 mph - N/A   Clear
10:58 PM 83.5 °F 44.1 °F 25% 29.72 in 10.0 mi West 4.6 mph - N/A   Clear
11:58 PM 80.8 °F 45.9 °F 29% 29.72 in 10.0 mi South 6.9 mph - N/A   Clear